Location: Melbourne
(37.8170°S, 144.9670°E)
Time: 19:12:42
(UTC+10:00)

ISS - All Passes

Search period start: 25 May 2016 00:00
Search period end: 04 June 2016 00:00
Orbit: 402 x 404 km, 51.6° (Epoch: 24 May)

Date Brightness Start Highest point End Pass type
(mag) Time Alt. Az. Time Alt. Az. Time Alt. Az.
25 May - 09:21:02 10° N 09:23:48 25° NE 09:26:36 10° ESE daylight
25 May - 10:57:09 10° W 11:00:10 31° SSW 11:03:13 10° SSE daylight
25 May - 15:50:06 10° SSW 15:52:45 21° SSE 15:55:23 10° E daylight
25 May - 17:26:08 10° WSW 17:29:22 47° NW 17:32:34 10° NNE daylight
26 May - 08:29:46 10° NNE 08:31:16 13° NE 08:32:46 10° E daylight
26 May - 10:04:04 10° WNW 10:07:20 59° SW 10:10:38 10° SE daylight
26 May - 11:42:45 10° SW 11:44:22 13° SSW 11:45:58 10° S daylight
26 May - 14:57:46 10° SSW 14:59:45 15° SSE 15:01:43 10° ESE daylight
26 May - 16:33:19 10° SW 16:36:40 80° SE 16:39:59 10° NE daylight
27 May - 09:11:18 10° NW 09:14:35 67° NE 09:17:54 10° SE daylight
27 May - 10:48:57 10° WSW 10:51:20 18° SSW 10:53:43 10° SSE daylight
27 May - 14:05:43 10° S 14:06:40 11° SSE 14:07:39 10° SSE daylight
27 May - 15:40:40 10° SW 15:43:51 40° SE 15:47:01 10° ENE daylight
27 May - 17:17:41 10° W 17:20:06 19° NW 17:22:30 10° N daylight
28 May - 08:18:58 10° NNW 08:21:55 31° NE 08:24:54 10° ESE daylight
28 May - 09:55:28 10° W 09:58:22 27° SSW 10:01:18 10° SSE daylight
28 May - 14:48:10 10° SSW 14:50:58 24° SSE 14:53:45 10° E daylight
28 May - 16:24:22 10° WSW 16:27:30 38° NW 16:30:35 10° NNE daylight
29 May - 07:27:17 10° NNE 07:29:20 15° NE 07:31:23 10° E daylight
29 May - 09:02:16 10° WNW 09:05:28 48° SW 09:08:44 10° SE daylight
29 May - 10:41:17 10° SW 10:42:36 12° SSW 10:43:53 10° S daylight
29 May - 13:55:46 10° SSW 13:57:58 16° SSE 14:00:09 10° ESE daylight
29 May - 15:31:26 10° SW 15:34:47 83° NW 15:38:06 10° NE daylight
30 May - 08:09:23 10° NW 08:12:41 84° NE 08:16:01 10° SE daylight
30 May - 09:47:21 10° WSW 09:49:31 16° SSW 09:51:42 10° SSE daylight
30 May - 13:03:34 10° S 13:04:53 12° SSE 13:06:13 10° SE daylight
30 May - 14:38:44 10° SW 14:42:00 48° SE 14:45:13 10° ENE daylight
30 May - 16:16:06 10° W 16:18:08 15° NW 16:20:09 10° NNW daylight
31 May - 07:16:53 10° NNW 07:19:58 38° NE 07:23:06 10° ESE daylight
31 May - 08:53:44 10° W 08:56:30 24° SSW 08:59:18 10° SSE daylight
31 May - 13:46:09 10° SSW 13:49:06 27° SSE 13:52:01 10° E daylight
31 May - 15:22:33 10° WSW 15:25:32 30° NW 15:28:29 10° NNE daylight
01 Jun - 06:24:56 10° N 06:27:20 19° NE 06:29:46 10° E visible
01 Jun - 08:00:26 10° WNW 08:03:34 40° SW 08:06:45 10° SE daylight
01 Jun - 09:39:50 10° SSW 09:40:46 11° SSW 09:41:41 10° S daylight
01 Jun - 12:53:43 10° SSW 12:56:07 18° SSE 12:58:29 10° ESE daylight
01 Jun - 14:29:32 10° SW 14:32:51 66° NW 14:36:07 10° NE daylight
02 Jun - 07:07:26 10° NW 07:10:44 79° SW 07:14:04 10° SE daylight
02 Jun - 08:45:42 10° WSW 08:47:39 15° SSW 08:49:36 10° SSE daylight
02 Jun - 12:01:25 10° S 12:03:02 13° SSE 12:04:39 10° SE daylight
02 Jun - 13:36:45 10° SW 13:40:03 59° SE 13:43:20 10° ENE daylight
02 Jun - 15:14:38 10° W 15:16:07 12° NW 15:17:34 10° NNW daylight
03 Jun - 06:14:47 10° NNW 06:17:58 48° NE 06:21:12 10° ESE visible
03 Jun - 07:51:59 10° W 07:54:35 21° SSW 07:57:13 10° SSE daylight
03 Jun - 12:44:07 10° SSW 12:47:10 32° SSE 12:50:11 10° E daylight
03 Jun - 14:20:44 10° WSW 14:23:31 25° NW 14:26:17 10° N daylight
